Regional Weather Roundup
Issued by NWS

Home | Current Version | Previous Version | Graphics & Text | Print | Product List | Glossary On
Versions: 1 2 3 4 5 6 7 8 9 10 11 12 13 14 15 16 17 18 19 20 21 22 23 24 25 26 27 28 29 30 31 32 33 34 35 36 37 38 39 40 41 42 43 44 45 46 47 48 49 50
719
ASUS43 KIND 280859
RWRIN

WEATHER ROUNDUP FOR INDIANA
NATIONAL WEATHER SERVICE INDIANAPOLIS IN
500 AM EDT WED JUN 28 2017

NOTE: "FAIR" INDICATES FEW OR NO CLOUDS BELOW 12,000 FEET WITH NO
SIGNIFICANT WEATHER AND/OR OBSTRUCTIONS TO VISIBILITY.

* - STATION DOES NOT REPORT WEATHER SUCH AS PRECIPITATION OR FOG.

+ - STATION NOT QUALITY CONTROLLED BY THE NATIONAL WEATHER SERVICE.
    USE DATA WITH CAUTION...ESPECIALLY DEWPOINT AND RELATIVE
    HUMIDITY OBSERVATIONS.

INZ001>003-010>013-019-020-281000-
NORTHWEST INDIANA

CITY           SKY/WX    TMP DP  RH WIND       PRES   REMARKS
KNOX *+        CLEAR     55  39  54 S7        30.06R
MICHIGAN CITY+ CLEAR     59  46  63 S7        30.05R
MONTICELLO +   CLEAR     59  48  68 S3        30.07S
RENSSELAER +   CLEAR     57  46  67 SE6       30.05S

$$

LMZ046-743>745-281000-
SOUTHERN LAKE MICHIGAN

STATION/POSITION TIME  TEMP    WIND        PRES    WAVE
                       AIR SEA DIR/SP/G            HT
                 (UTC) (F)     (DEG/KT/KT) (MB)    (FT)
BURNS HARBOR     0840   62     180/ 10/ 14 1017.3F
MICHIGAN CITY    0830   63     160/ 10/ 13   N/A
5NW MICH CITY    0850   62 66  180/ 14/ 16   N/A     1

$$

INZ004-005-014>016-021>024-281000-
NORTH CENTRAL INDIANA

CITY           SKY/WX    TMP DP  RH WIND       PRES   REMARKS
GOSHEN         CLEAR     54  46  74 S7        30.06F
SOUTH BEND     CLEAR     56  47  71 S5        30.06F

$$

INZ006>009-017-018-025>027-281000-
NORTHEAST INDIANA

CITY           SKY/WX    TMP DP  RH WIND       PRES   REMARKS
ANGOLA *+      CLEAR     48  39  71 CALM      30.09F
FORT WAYNE     PTCLDY    55  48  77 CALM      30.10F
KENDALLVILLE + CLEAR     54  48  81 S5        30.09F

$$

INZ028-029-035-036-043>045-051>053-281000-
WEST CENTRAL INDIANA

CITY           SKY/WX    TMP DP  RH WIND       PRES   REMARKS
CRAWFORDSVL +  CLEAR     51  51 100 CALM      30.08S
LAFAYETTE      CLEAR     55  49  80 CALM      30.07F
TERRE HAUTE    CLEAR     55  49  80 CALM      30.08F

$$

INZ030>032-037>040-046>048-054>057-064-065-281000-
CENTRAL INDIANA

CITY           SKY/WX    TMP DP  RH WIND       PRES   REMARKS
CP ATTERBURY + CLEAR     46  46 100 CALM      30.10F
GREENWOOD *+   PTCLDY    57  50  75 SE6       30.09F
INDIANAPOLIS   CLEAR     57  50  77 SE8       30.07F
-EAGLE CREEK   CLEAR     56  50  80 SE3       30.07F
KOKOMO +       CLEAR     56  50  80 S7        30.09F
MT COMFORT *+  CLEAR     55  50  82 SE6       30.11F
SHELBYVILLE    CLEAR     52  48  86 SE6       30.08F

$$

INZ033-034-041-042-049-050-058-059-281000-
EAST CENTRAL INDIANA

CITY           SKY/WX    TMP DP  RH WIND       PRES   REMARKS
MUNCIE         CLEAR     57  48  72 S5        30.10F
RICHMOND +     CLEAR     50  46  87 S6        30.14F

$$

INZ060-061-067>069-081>083-085>088-281000-
SOUTHWEST INDIANA

CITY           SKY/WX    TMP DP  RH WIND       PRES   REMARKS
EVANSVILLE     CLEAR     58  55  90 E3        30.06F
HUNTINGBURG *+ CLEAR     57  51  80 SE7       30.07F

$$

INZ062-063-066-070>080-084-089>092-281000-
SOUTH CENTRAL AND SOUTHEAST INDIANA

CITY           SKY/WX    TMP DP  RH WIND       PRES   REMARKS
BLOOMINGTON    CLEAR     53  49  86 CALM      30.07F
MADISON *+     CLEAR     54  52  94 CALM      30.14S
SEYMOUR +      CLEAR     55  54  94 E5        30.10F

$$





USA.gov is the U.S. government's official web portal to all federal, state and local government web resources and services.